#timestamp,LO_Frequency,Hit,StdDev 
1503129615.1,286047000.0,N,1.4
1503129616.0,286047000.0,N,1.4
1503129635.8,286047000.6,N,1.3
1503129655.6,286046998.2,N,1.3
1503129675.5,286046999.1,N,1.3
1503129695.3,286046998.6,N,1.2
1503129715.2,286046999.0,N,1.2
1503129735.9,286046998.9,N,1.1
1503129755.7,286046996.6,Y,0.0
1503129775.6,286046998.3,P,0.5
1503129795.4,286046998.5,P,0.4
1503129815.2,286046998.7,P,0.4
1503129835.1,286046998.9,Y,0.0
1503129836.0,286046998.9,P,0.1
1503129855.8,286047000.5,P,0.8
1503129875.7,286046999.9,N,0.7
1503129895.5,286047000.2,N,0.7
1503129915.3,286047000.4,N,0.7
1503129935.2,286047000.4,N,0.7
1503129955.0,286047000.7,N,0.7
1503129955.9,286047000.7,N,0.7
1503129975.7,286046998.8,N,0.8
1503129995.6,286046998.3,N,0.9
1503130015.4,286046998.5,N,0.9
1503130035.3,286046998.4,N,0.9
1503130055.1,286047001.0,N,1.0
1503130056.0,286047001.0,N,1.0
1503130075.8,286047000.5,N,1.0
1503130095.7,286047002.3,N,1.1
1503130115.5,286047002.1,N,1.2
1503130135.3,286046999.7,N,1.2
1503130155.2,286047002.7,N,1.3
1503130175.0,286047002.7,N,1.4
1503130175.9,286047002.7,N,1.4
1503130195.8,286047002.1,N,1.4
1503130215.6,286047001.7,N,1.4
1503130235.4,286047004.4,Y,0.0
1503130255.3,286047001.7,P,0.6
1503130275.1,286047003.9,P,1.4
1503130295.8,286047002.0,N,1.2
1503130315.7,286047001.4,N,1.1
1503130335.5,286047002.0,N,1.0
1503130355.4,286047001.6,N,0.9
1503130375.2,286047001.6,N,0.9
1503130395.0,286047001.7,N,0.8
1503130395.9,286047001.7,N,0.8
1503130415.8,286047004.2,Y,0.0
1503130435.6,286047002.0,P,0.1
1503130455.4,286047001.9,P,0.1
1503130475.3,286047001.4,P,0.2
1503130495.1,286047001.7,Y,0.0
1503130515.9,286047000.8,P,0.5
1503130535.7,286047000.4,N,0.6
1503130555.5,286047000.0,N,0.7
1503130575.4,286046999.9,N,0.7
1503130595.2,286046999.9,N,0.7
1503130615.0,286047000.2,N,0.6
1503130615.9,286047000.2,N,0.6
1503130635.8,286047002.2,Y,0.0
1503130655.6,286047000.1,P,0.1
1503130675.5,286046999.9,N,0.2
1503130695.3,286047001.9,P,0.8
1503130715.2,286047002.5,Y,0.0
1503130735.9,286047002.1,P,0.8
1503130755.7,286047002.2,N,0.7
1503130775.6,286047002.7,P,0.8
1503130795.4,286047002.0,N,0.7
1503130815.2,286047001.4,N,0.7
1503130835.1,286047001.5,N,0.6
1503130836.0,286047001.5,N,0.6
1503130855.8,286047001.4,N,0.6
1503130875.7,286047001.5,N,0.6
1503130895.5,286047001.8,Y,0.0
1503130915.3,286047000.7,P,0.5
1503130935.2,286047001.0,N,0.4
1503130955.0,286046999.7,N,0.7
1503130955.9,286046999.7,N,0.8
1503130975.7,286047000.5,N,0.7
1503130995.6,286046999.9,N,0.7
1503131015.4,286047000.7,N,0.6
1503131035.3,286047000.4,N,0.6
1503131055.1,286047000.6,N,0.6
1503131056.0,286047000.6,N,0.6
1503131075.8,286047000.0,N,0.6
1503131095.7,286047000.1,N,0.5
1503131115.5,286046999.7,N,0.6
1503131135.3,286046999.8,N,0.6
1503131155.2,286046999.9,N,0.5
1503131175.0,286046999.7,N,0.5
1503131175.9,286046999.7,N,0.5
1503131195.8,286047000.1,N,0.5
1503131215.6,286046999.9,N,0.5
1503131235.4,286047000.2,N,0.5
1503131255.3,286047002.4,Y,0.0
1503131275.1,286047002.8,P,1.3
1503131295.8,286046999.8,N,1.3
1503131315.7,286047000.0,N,1.2
1503131335.5,286047002.8,N,1.4
1503131355.4,286046999.8,N,1.3
1503131375.2,286047002.3,N,1.3
1503131395.0,286046999.7,N,1.3
1503131395.9,286046999.7,N,1.3
1503131415.8,286047011.9,Y,0.0
1503131435.6,286047000.0,P,0.4
1503131455.4,286046999.9,N,0.4
1503131475.3,286047002.4,P,1.0
1503131495.1,286047002.7,N,1.2
1503131515.9,286047002.7,N,1.2
1503131535.7,286047002.8,N,1.2
1503131555.5,286047002.3,N,1.2
1503131575.4,286047000.6,N,1.2
1503131595.2,286047002.5,N,1.1
1503131615.0,286047002.8,N,1.1
1503131615.9,286047002.8,N,1.1
1503131635.8,286047002.6,N,1.1
1503131655.6,286047002.1,N,1.1
1503131675.5,286047002.1,N,1.0
1503131695.3,286047002.7,N,1.0
1503131715.1,286047001.5,N,1.0
1503131735.9,286047002.0,N,1.0
1503131755.7,286047001.5,N,0.9
1503131775.5,286047002.2,N,0.9
1503131795.4,286047001.4,N,0.9
1503131815.2,286047002.1,N,0.9
1503131835.1,286047001.4,N,0.9
1503131836.0,286047001.4,N,0.9
1503131855.8,286047002.0,N,0.8
1503131875.6,286047002.5,N,0.8
1503131895.5,286047001.9,N,0.8
1503131915.3,286047002.0,N,0.8
1503131935.1,286046999.8,N,0.9
1503131955.9,286047002.0,N,0.9
1503131975.7,286047002.0,N,0.8
1503131995.6,286047001.9,N,0.8
1503132015.4,286047002.6,Y,0.0
1503132035.2,286047000.9,P,0.5
1503132055.1,286047000.7,N,0.5
1503132056.0,286047000.7,N,0.5
1503132075.8,286047000.5,N,0.5
1503132095.6,286047001.1,N,0.5
1503132115.5,286047000.8,N,0.4
1503132135.3,286047001.0,N,0.4
1503132155.2,286047001.0,N,0.4
1503132175.9,286047000.4,N,0.4
1503132195.7,286047000.4,N,0.4
1503132215.6,286047000.3,N,0.4
1503132235.4,286047000.4,N,0.4
1503132255.2,286046999.9,N,0.5
1503132275.1,286046999.9,N,0.5
1503132276.0,286046999.9,N,0.5
1503132295.8,286047000.2,N,0.5
1503132315.7,286047000.2,N,0.5
1503132335.5,286046999.9,N,0.5
1503132355.3,286047001.0,N,0.5
1503132375.2,286047000.9,N,0.5
1503132395.9,286047000.0,N,0.5
1503132415.7,286047000.4,N,0.5
1503132435.6,286047000.0,N,0.5
1503132455.4,286047002.6,Y,0.0
1503132475.3,286046999.9,P,0.3
1503132495.1,286047000.4,N,0.3
1503132496.0,286047000.4,N,0.2
1503132515.8,286047000.2,N,0.2
1503132535.7,286047000.9,Y,0.0
1503132555.5,286047000.6,P,0.2
1503132575.3,286047000.6,P,0.1
1503132595.2,286047000.3,N,0.2
1503132615.0,286047001.0,Y,0.0
1503132615.9,286047001.0,P,0.3
1503132635.8,286047000.4,N,0.3
1503132655.6,286047000.5,N,0.2
1503132675.4,286047001.0,Y,0.0
1503132695.3,286047000.6,P,0.0
1503132715.1,286047000.7,P,0.1
1503132735.8,286046998.5,P,0.9
1503132755.7,286047000.8,N,0.9
1503132775.5,286047000.9,N,0.8
1503132795.4,286046998.3,N,1.1
1503132815.2,286046999.6,N,1.0
1503132835.0,286046996.9,Y,0.0
1503132835.9,286046996.9,P,1.5
1503132855.8,286046998.4,N,1.3
1503132875.6,286046998.4,N,1.1
1503132895.4,286046998.3,N,1.0
1503132915.3,286046998.4,N,0.9
1503132935.1,286046996.5,Y,0.0
1503132955.9,286046999.9,P,0.8
1503132975.7,286047000.1,N,0.8
1503132995.5,286047000.9,N,0.9
1503133015.4,286047001.0,N,0.9
1503133035.2,286047000.8,N,0.9
1503133055.0,286047001.2,N,0.9
1503133055.9,286047001.2,N,0.9
1503133075.8,286047000.2,N,0.8
1503133095.6,286047000.2,N,0.8
1503133115.5,286047000.8,N,0.8
1503133135.3,286047000.6,N,0.7
1503133155.1,286047000.0,N,0.7
1503133175.9,286047000.4,N,0.7
1503133195.7,286047000.3,N,0.7
